Regional Weather Roundup
Issued by NWS

Home | Current Version | Previous Version | Text Only | Print | Product List | Glossary Off
Versions: 1 2 3 4 5 6 7 8 9 10 11 12 13 14 15 16 17 18 19 20 21 22 23 24 25 26 27 28 29 30 31 32 33 34 35 36 37 38 39 40 41 42 43 44 45 46 47 48 49 50

000
ASUS43 KIND 180709
RWRIN

WEATHER ROUNDUP FOR INDIANA
NATIONAL WEATHER SERVICE INDIANAPOLIS IN
200 AM EST SAT NOV 18 2017

NOTE: "FAIR" INDICATES FEW OR NO CLOUDS BELOW 12,000 FEET WITH NO
SIGNIFICANT WEATHER AND/OR OBSTRUCTIONS TO VISIBILITY.

* - STATION DOES NOT REPORT WEATHER SUCH AS PRECIPITATION OR FOG.

+ - STATION NOT QUALITY CONTROLLED BY THE NATIONAL WEATHER SERVICE.
    USE DATA WITH CAUTION...ESPECIALLY DEWPOINT AND RELATIVE
    HUMIDITY OBSERVATIONS.

INZ001>003-010>013-019-020-180800-
NORTHWEST INDIANA

CITY           SKY/WX    TMP DP  RH WIND       PRES   REMARKS
GARY /AIRPORT/ RAIN      49  46  90 SW3       29.56F
KNOX *+        CLOUDY    43  43 100 SE3       29.57F
LA PORTE +     DRIZZLE   43  42  97 S6        29.57F
MICHIGAN CITY+ DRIZZLE   43  43 100 S5        29.57F
MONTICELLO +   CLOUDY    49  46  87 S8        29.56F
RENSSELAER +   CLOUDY    50  43  76 S15       29.55F
VALPARAISO     LGT RAIN  47  45  93 CALM      29.57F FOG

$$

LMZ046-743>745-180800-
SOUTHERN LAKE MICHIGAN

STATION/POSITION TIME  TEMP    WIND        PRES    WAVE
                       AIR SEA DIR/SP/G            HT
                 (UTC) (F)     (DEG/KT/KT) (MB)    (FT)
BURNS HARBOR     0640   47     210/  4/  7 1002.0F
MICHIGAN CITY    0640   44     190/  6/  7   N/A

$$

INZ004-005-014>016-021>024-180800-
NORTH CENTRAL INDIANA

CITY           SKY/WX    TMP DP  RH WIND       PRES   REMARKS
GOSHEN         LGT RAIN  45  41  86 S8        29.57F FOG
LOGANSPORT +   LGT RAIN  46  43  87 S12       29.58F
ROCHESTER +    LGT RAIN  48  45  87 S9        29.58F
SOUTH BEND     LGT RAIN  43  43 100 S10       29.58F FOG
WARSAW +       CLOUDY    46  43  87 S5        29.58F

$$

INZ006>009-017-018-025>027-180800-
NORTHEAST INDIANA

CITY           SKY/WX    TMP DP  RH WIND       PRES   REMARKS
AUBURN +       DRIZZLE   45  41  87 CALM      29.62F
FORT WAYNE     LGT RAIN  50  44  80 S14       29.61F
HUNTINGTON +   DRIZZLE   49  44  83 SW13G23   29.59F
KENDALLVILLE + DRIZZLE   44  43  97 S9        29.59F

$$

INZ028-029-035-036-043>045-051>053-180800-
WEST CENTRAL INDIANA

CITY           SKY/WX    TMP DP  RH WIND       PRES   REMARKS
CRAWFORDSVL +  CLOUDY    52  45  76 S16       29.58F
GREENCASTLE +  CLOUDY    55  43  62 SW10G23   29.61F
LAFAYETTE      CLOUDY    54  46  74 S8        29.57F
TERRE HAUTE    CLOUDY    58  43  57 S18       29.60F

$$

INZ030>032-037>040-046>048-054>057-064-065-180800-
CENTRAL INDIANA

CITY           SKY/WX    TMP DP  RH WIND       PRES   REMARKS
CP ATTERBURY + CLOUDY    50  43  76 S10       29.66F
FISHERS *+     CLOUDY    48  45  87 S10       29.61
FRANKFORT +    CLOUDY    52  47  83 SW9G16    29.60F
GREENWOOD *+   CLOUDY    56  45  66 S9        29.64F
INDIANAPOLIS   CLOUDY    52  45  77 S9        29.63F
-EAGLE CREEK   CLOUDY    53  43  68 S7        29.61F
KOKOMO +       LGT RAIN  48  44  86 S13       29.59F
MARION +       CLOUDY    47  42  82 S18       29.60F HAZE
MT COMFORT *+  CLOUDY    46  45  93 S12       29.63F
SHELBYVILLE    CLOUDY    50  40  68 S10       29.65F
ZIONSVILLE +   CLOUDY    48  43  84 S10       29.61F

$$

INZ033-034-041-042-049-050-058-059-180800-
EAST CENTRAL INDIANA

CITY           SKY/WX    TMP DP  RH WIND       PRES   REMARKS
MUNCIE         CLOUDY    52  42  69 S15G28    29.62F
RICHMOND +     CLOUDY    45  41  87 S15       29.67F

$$

INZ060-061-067>069-081>083-085>088-180800-
SOUTHWEST INDIANA

CITY           SKY/WX    TMP DP  RH WIND       PRES   REMARKS
EVANSVILLE     CLOUDY    61  49  64 S12       29.69F
HUNTINGBURG +  CLOUDY    60  46  59 S20G25    29.70F
WASHINGTON +   CLOUDY    59  42  54 S21G28    29.64F

$$

INZ062-063-066-070>080-084-089>092-180800-
SOUTH CENTRAL AND SOUTHEAST INDIANA

CITY           SKY/WX    TMP DP  RH WIND       PRES   REMARKS
BEDFORD +      CLOUDY    59  43  55 S10G17    29.67F
BLOOMINGTON    CLOUDY    61  45  55 SW18G31   29.64F
MADISON *+     CLOUDY    54  41  62 S10G16    29.73F
NORTH VERNON + CLOUDY    52  41  66 S13G20    29.69F
SEYMOUR +      CLOUDY    55  43  62 S15G21    29.68F

$$




USA.gov is the U.S. government's official web portal to all federal, state and local government web resources and services.